OCEANSAT-2

Last updated on Mon Oct 14 2024 00:02:24 GMT+0000 (Coordinated Universal Time)

1 35931U 09051A 24287.53904878 .00000624 00000+0 45313-3 0 9993 2 35931 98.2526 324.8009 0016762 156.6335 203.5597 13.99515334793779
UTC large
Height (km)
Speed (km/s)
/
Latitude / Longitude
Inclination (degrees)
Orbital Period (minutes)
Azimuth
Elevation
Range (km)
Doppler Factor

Next 0 passes for location: London (51.5072 / 0.1276)

Sorry there are no passes over London.